Location: Corona
(40.7470°N, 73.8601°W)
Time: 08:38:46
(UTC+00:00)

Cosmos 405 Rocket - Pass Details

Date: 22 September 2019
Orbit: 491 x 554 km, 81.3° (Epoch: 20 October)

Event Time Altitude Azimuth Distance (km) Brightness Sun altitude
Rises 23:15:05 0° 150° (SSE) 2,555 5.9 -5.0°
Reaches altitude 10° 23:17:47 10° 128° (SE) 1,681 4.8 -5.5°
Maximum altitude 23:20:06 16° 89° (E) 1,353 4.2 -6.0°
Drops below altitude 10° 23:22:26 10° 50° (NE) 1,698 4.9 -6.4°
Sets 23:25:10 0° 28° (NNE) 2,595 6.0 -6.9°
